This demonstration page uses our WeatherBlox Daily Observations layout. Learn more.

Left ArrowRight Arrow

39.01783, -85.05884

Hourly Observations for December 3, 2020

Temp ( °F °C ) Dew Point ( °F °C ) Humidity (%) Winds ( mph kmh ) Pressure ( in mb ) Visibility ( mi km ) Precip ( " mm )
12:52 am 00:52 Mostly Clear 29 -1.7 23 -5 78 78 N N/A 30.33 1027 10 16 N/A
1:52 am 01:52 Partly Cloudy 29 -1.7 23 -5 78 78 N N/A 30.31 1026 10 16 N/A
2:52 am 02:52 Mostly Cloudy 29 -1.7 23 -5 78 78 SSW 5 7 30.31 1026 10 16 N/A
3:52 am 03:52 Mostly Cloudy 29 -1.7 23 -5 78 78 SSW 3 6 30.29 1026 10 16 N/A
4:52 am 04:52 Partly Cloudy 28 -2.2 22 -5.6 78 78 SSW 6 9 30.28 1026 10 16 N/A
5:52 am 05:52 Partly Cloudy 30 -1.1 22 -5.6 72 72 N N/A 30.28 1025 10 16 N/A
6:52 am 06:52 Mostly Cloudy 27 -2.8 22 -5.6 81 81 S 7 11 30.28 1026 10 16 N/A
7:52 am 07:52 Cloudy 28 -2.2 23 -5 81 81 SSW 5 7 30.29 1026 8 13 N/A
8:52 am 08:52 Cloudy 30 -1.1 25 -3.9 82 82 S 3 6 30.30 1026 10 16 N/A
9:52 am 09:52 Cloudy 32 undefined 26 -3.3 79 79 SSW 3 6 30.31 1026 10 16 N/A
10:52 am 10:52 Cloudy 34 1.1 26 -3.3 73 73 SSW 5 7 30.31 1026 10 16 N/A
11:52 am 11:52 Cloudy 36 2.2 26 -3.3 67 67 SSW 3 6 30.29 1026 10 16 N/A
12:52 pm 12:52 Cloudy 38 3.3 26 -3.3 62 62 SW 5 7 30.24 1024 10 16 N/A
1:52 pm 13:52 Cloudy 39 3.9 27 -2.8 62 62 WSW 5 7 30.22 1023 10 16 N/A
2:52 pm 14:52 Cloudy 41 5 28 -2.2 60 60 SSW 6 9 30.21 1023 10 16 N/A
3:52 pm 15:52 Mostly Cloudy 39 3.9 27 -2.8 62 62 SSW 5 7 30.20 1023 10 16 N/A
4:52 pm 16:52 Cloudy 39 3.9 30 -1.1 70 70 S 5 7 30.19 1023 10 16 N/A
5:52 pm 17:52 Mostly Cloudy 37 2.8 29 -1.7 73 73 S 6 9 30.17 1022 10 16 N/A
6:52 pm 18:52 Cloudy 38 3.3 29 -1.7 70 70 S 6 9 30.17 1022 10 16 N/A
7:52 pm 19:52 Cloudy 38 3.3 29 -1.7 70 70 S 5 7 30.17 1022 10 16 N/A
8:52 pm 20:52 Cloudy 39 3.9 30 -1.1 70 70 S 9 15 30.16 1021 10 16 N/A
9:52 pm 21:52 Cloudy 40 4.4 29 -1.7 65 65 SSW 5 7 30.14 1021 10 16 N/A
10:52 pm 22:52 Cloudy 39 3.9 30 -1.1 70 70 WSW 3 6 30.13 1020 10 16 N/A
11:52 pm 23:52 Cloudy 37 2.8 32 undefined 82 82 S 3 6 30.13 1020 10 16 N/A

Powered by AerisWeather